Home > Weather > Irving > Past weeks

Flag for USA Past Weather in Irving, Texas, USA — Yesterday and Last 2 Weeks

Now
95 °F

Broken clouds.


Feels Like: 99 °F
Forecast: 79 / 95 °F
Wind: 16 mph from Southwest

Location: Dallas / Fort Worth International Airport

Current Time: Jun 26, 2016 at 2:14:29 PM

Latest Report: Jun 26, 2016 at 1:53 PM


Visibility: 10 mi

Pressure: 30.05 "Hg

Humidity: 40%

Dew Point: 67 °F

Location of IrvingLocation

Past Weather in Irving — Graph

°F

Irving Temperature Yesterday

Maximum temperature yesterday: 95 °F (at 2:53 PM)
Minimum temperature yesterday: 79 °F (at 6:53 AM)
Average temperature yesterday: 86 °F

High & Low Weather Summary for the Past Weeks

 TemperatureHumidityPressure
High97 °F (Jun 16, 1:53 PM)91% (Jun 12, 5:03 PM)30.18 "Hg (Jun 12, 5:03 PM)
Low74 °F (Jun 13, 12:53 AM)30% (Jun 20, 5:53 PM)29.75 "Hg (Jun 14, 6:53 PM)
Average86 °F63%29.96 "Hg
* Reported Jun 11 11:53 AM — Jun 26 11:53 AM, Irving, Weather by CustomWeather, © 2016

Note: Actual official high and low records may vary slightly from our data, if they occured in-between our weather recording intervals... More about our weather records

Advertising

Irving Weather History for the Previous 24 Hours

Scroll right to see more
 ConditionsComfort  
Time TempWeatherWind HumidityBarometerVisibility
11:53 AM
Sun, Jun 26
92 °FScattered clouds.12 mph46%30.08 "Hg10 mi
10:53 AM90 °FPassing clouds.15 mph50%30.09 "Hg10 mi
9:53 AM87 °FPassing clouds.13 mph61%30.09 "Hg10 mi
8:53 AM84 °FScattered clouds.10 mph70%30.09 "Hg10 mi
7:53 AM82 °FPartly sunny.10 mph77%30.07 "Hg10 mi
6:53 AM79 °FPassing clouds.12 mph84%30.06 "Hg10 mi
5:53 AM79 °FPassing clouds.7 mph82%30.06 "Hg10 mi
4:53 AM80 °FPassing clouds.7 mph79%30.05 "Hg10 mi
3:53 AM81 °FPassing clouds.8 mph74%30.03 "Hg10 mi
2:53 AM82 °FPassing clouds.10 mph72%30.04 "Hg10 mi
1:53 AM82 °FPartly cloudy.8 mph72%30.03 "Hg10 mi
12:53 AM83 °FPassing clouds.8 mph68%30.01 "Hg10 mi
11:53 PM
Sat, Jun 25
83 °FPassing clouds.13 mph68%29.99 "Hg10 mi
10:53 PM84 °FPassing clouds.10 mph63%29.97 "Hg10 mi
9:53 PM85 °FPassing clouds.14 mph63%29.96 "Hg10 mi
8:53 PM87 °FPartly sunny.14 mph57%29.96 "Hg10 mi
7:53 PM88 °FPartly sunny.13 mph54%29.95 "Hg10 mi
6:53 PM90 °FPartly sunny.16 mph54%29.94 "Hg10 mi
5:53 PM91 °FPartly sunny.15 mph52%29.95 "Hg10 mi
4:53 PM92 °FPartly sunny.18 mph46%29.96 "Hg10 mi
3:53 PM93 °FPartly sunny.16 mph46%29.96 "Hg10 mi
2:53 PM95 °FBroken clouds.18 mph44%29.97 "Hg10 mi
Weather by CustomWeather, © 2016

See weather overviewHow to use our weather pages